Location: Unspecified
(0.0000°N, 0.0000°E)
Time: 18:57:19
(UTC+00:00)

OTV 5 (USA 277) - Pass Details

Date: 07 October 2017
Orbit: 404 x 417 km, 43.0° (Epoch: 07 September)

Event Time Altitude Azimuth Distance (km) Brightness Sun altitude
Exits shadow 05:08:24 13° 296° (WNW) 1,297 ? -9.8°
Maximum altitude 05:11:07 42° 226° (SW) 581 ? -9.1°
Drops below altitude 10° 05:14:15 10° 153° (SSE) 1,450 ? -8.4°
Sets 05:16:25 0° 145° (SE) 2,311 ? -7.8°
